This is the latest recevied weather packets stored in our database for station/object K2BIG. If no packets are shown the sender has not sent any weather packets the latest 10 day(s).
| Time | Temp. | Humidity | Pressure | Rain* | Wind** | Luminosity | Snow |
|---|---|---|---|---|---|---|---|
| 1777394716 | 20° C | 46% | 1020 hPa | 0 mm | - | - | - |
| 1777394416 | 20° C | 47% | 1020 hPa | 0 mm | - | - | - |
| 1777394116 | 20° C | 47% | 1020.1 hPa | 0 mm | - | - | - |
| 1777393816 | 20° C | 46% | 1020.2 hPa | 0 mm | - | - | - |
| 1777393516 | 20° C | 49% | 1020.2 hPa | 0 mm | - | - | - |
| 1777393216 | 19.44° C | 49% | 1020.2 hPa | 0 mm | - | - | - |
| 1777392916 | 19.44° C | 49% | 1020.4 hPa | 0 mm | - | - | - |
| 1777392616 | 19.44° C | 48% | 1020.6 hPa | 0 mm | - | - | - |
| 1777392316 | 19.44° C | 47% | 1020.6 hPa | 0 mm | - | - | - |
| 1777392016 | 19.44° C | 49% | 1020.7 hPa | 0 mm | - | - | - |
| 1777391716 | 19.44° C | 47% | 1020.8 hPa | 0 mm | - | - | - |
| 1777391416 | 19.44° C | 48% | 1020.7 hPa | 0 mm | - | - | - |
| 1777391116 | 19.44° C | 48% | 1020.7 hPa | 0 mm | - | - | - |
| 1777390816 | 19.44° C | 47% | 1020.8 hPa | 0 mm | - | - | - |
| 1777390516 | 19.44° C | 47% | 1020.9 hPa | 0 mm | - | - | - |
| 1777390216 | 18.89° C | 46% | 1020.9 hPa | 0 mm | - | - | - |
| 1777389916 | 18.89° C | 49% | 1021 hPa | 0 mm | - | - | - |
| 1777389616 | 18.89° C | 48% | 1021 hPa | 0 mm | - | - | - |
| 1777389316 | 18.89° C | 48% | 1021 hPa | 0 mm | - | - | - |
| 1777389016 | 18.89° C | 47% | 1021 hPa | 0 mm | - | - | - |
| 1777388716 | 18.89° C | 47% | 1021 hPa | 0 mm | - | - | - |
| 1777388416 | 18.89° C | 49% | 1021.1 hPa | 0 mm | - | - | - |
| 1777388116 | 18.89° C | 47% | 1021.1 hPa | 0 mm | - | - | - |
| 1777387815 | 18.89° C | 48% | 1021.2 hPa | 0 mm | - | - | - |
| 1777387516 | 18.33° C | 47% | 1021.2 hPa | 0 mm | - | - | - |
* Rain latest hour (hover to see other rain measurements)
** Current wind speed in m/s (hover to see current wind gust speed)